When you browse on this site, cookies collect data to enhance your experience and personalize the content and advertising you see.
Visit our Privacy Policy to learn more. By continuing to use the site, you agree to this use of cookies and data.
  • In France
  • List of Countries
  • For 7 days
  • Water Temperature
  • Weather Map
  • Weather Widgets
  • user-avatar
    Login

    Hourly Weather Hitchin

    Today, 26 May, Tuesday

    Time Temperature Precipitation Wind Pressure Humidity
    00:00 +13°C° 0 mm 2 mps 768 mmHg 91%
    01:00 +12°C° 0 mm 2 mps 768 mmHg 90%
    02:00 +12°C° 0 mm 2 mps 768 mmHg 90%
    03:00 +11°C° 0 mm 1 mps 768 mmHg 89%
    04:00 +12°C° 0 mm 1 mps 768 mmHg 86%
    05:00 +13°C° 0 mm 1 mps 768 mmHg 84%
    06:00 +14°C° 0 mm 1 mps 769 mmHg 83%
    07:00 +15°C° 0 mm 2 mps 769 mmHg 77%
    08:00 +17°C° 0 mm 2 mps 769 mmHg 70%
    09:00 +18°C° 0 mm 2 mps 769 mmHg 64%
    10:00 +19°C° 0 mm 2 mps 769 mmHg 61%
    11:00 +20°C° 0 mm 2 mps 769 mmHg 58%
    12:00 +21°C° 0 mm 2 mps 769 mmHg 55%
    13:00 +21°C° 0 mm 2 mps 769 mmHg 57%
    14:00 +21°C° 0 mm 2 mps 769 mmHg 58%
    15:00 +21°C° 0 mm 2 mps 769 mmHg 59%
    16:00 +21°C° 0 mm 2 mps 769 mmHg 65%
    17:00 +21°C° 0 mm 2 mps 769 mmHg 70%
    18:00 +20°C° 0 mm 2 mps 768 mmHg 76%
    19:00 +19°C° 0 mm 2 mps 769 mmHg 79%
    20:00 +19°C° 0 mm 1 mps 769 mmHg 83%
    21:00 +16°C° 0 mm 1 mps 769 mmHg 86%
    22:00 +15°C° 0 mm 1 mps 769 mmHg 88%
    23:00 +15°C° 0 mm 2 mps 769 mmHg 90%

    Tomorrow, 27 May, Wednesday

    Time Temperature Precipitation Wind Pressure Humidity
    00:00 +14°C° 0 mm 2 mps 769 mmHg 92%
    01:00 +13°C° 0 mm 2 mps 769 mmHg 92%
    02:00 +12°C° 0 mm 2 mps 769 mmHg 92%
    03:00 +12°C° 0 mm 2 mps 769 mmHg 92%
    04:00 +12°C° 0 mm 2 mps 769 mmHg 89%
    05:00 +13°C° 0 mm 2 mps 769 mmHg 87%
    06:00 +14°C° 0 mm 2 mps 769 mmHg 85%
    07:00 +15°C° 0 mm 2 mps 769 mmHg 80%
    08:00 +16°C° 0 mm 2 mps 769 mmHg 74%
    09:00 +18°C° 0 mm 2 mps 770 mmHg 69%
    10:00 +19°C° 0 mm 2 mps 769 mmHg 66%
    11:00 +20°C° 0 mm 2 mps 769 mmHg 63%
    12:00 +20°C° 0 mm 2 mps 769 mmHg 60%
    13:00 +21°C° 0 mm 2 mps 769 mmHg 58%
    14:00 +21°C° 0 mm 2 mps 769 mmHg 57%
    15:00 +21°C° 0 mm 2 mps 769 mmHg 56%
    16:00 +20°C° 0 mm 3 mps 769 mmHg 63%
    17:00 +20°C° 0 mm 3 mps 769 mmHg 70%
    18:00 +19°C° 0 mm 3 mps 769 mmHg 77%
    19:00 +17°C° 0 mm 3 mps 769 mmHg 81%
    20:00 +14°C° 0 mm 3 mps 769 mmHg 86%
    21:00 +12°C° 0 mm 3 mps 769 mmHg 91%
    22:00 +11°C° 0 mm 3 mps 769 mmHg 90%
    23:00 +10°C° 0 mm 2 mps 769 mmHg 90%

    Day after tomorrow, 28 May, Thursday

    Time Temperature Precipitation Wind Pressure Humidity
    00:00 +10°C° 0 mm 2 mps 769 mmHg 90%
    01:00 +9°C° 0 mm 2 mps 769 mmHg 90%
    02:00 +9°C° 0 mm 2 mps 769 mmHg 90%
    03:00 +8°C° 0 mm 2 mps 769 mmHg 90%
    04:00 +9°C° 0 mm 2 mps 769 mmHg 87%
    05:00 +10°C° 0 mm 2 mps 768 mmHg 84%
    06:00 +10°C° 0 mm 2 mps 768 mmHg 81%
    07:00 +13°C° 0 mm 2 mps 768 mmHg 74%
    08:00 +14°C° 0 mm 3 mps 768 mmHg 68%
    09:00 +17°C° 0 mm 3 mps 768 mmHg 61%
    10:00 +17°C° 0 mm 3 mps 768 mmHg 60%
    11:00 +18°C° 0 mm 3 mps 768 mmHg 59%
    12:00 +19°C° 0 mm 3 mps 767 mmHg 58%
    13:00 +19°C° 0 mm 3 mps 767 mmHg 59%
    14:00 +19°C° 0 mm 4 mps 767 mmHg 59%
    15:00 +19°C° 0 mm 4 mps 766 mmHg 60%
    16:00 +19°C° 0 mm 4 mps 766 mmHg 63%
    17:00 +18°C° 0 mm 4 mps 766 mmHg 66%
    18:00 +17°C° 0 mm 3 mps 766 mmHg 69%
    19:00 +14°C° 0 mm 3 mps 766 mmHg 72%
    20:00 +12°C° 0 mm 3 mps 765 mmHg 75%
    21:00 +10°C° 0 mm 3 mps 765 mmHg 77%
    22:00 +9°C° 0 mm 3 mps 765 mmHg 79%
    23:00 +9°C° 0 mm 3 mps 765 mmHg 80%

    29 May, Friday

    Time Temperature Precipitation Wind Pressure Humidity
    00:00 +8°C° 0 mm 2 mps 765 mmHg 81%
    01:00 +8°C° 0 mm 2 mps 765 mmHg 82%
    02:00 +8°C° 0 mm 2 mps 765 mmHg 83%
    03:00 +8°C° 0 mm 2 mps 764 mmHg 83%
    04:00 +9°C° 0 mm 2 mps 764 mmHg 82%
    05:00 +10°C° 0 mm 2 mps 764 mmHg 81%
    06:00 +12°C° 0 mm 2 mps 764 mmHg 80%
    07:00 +13°C° 0 mm 3 mps 764 mmHg 75%
    08:00 +16°C° 0 mm 3 mps 764 mmHg 71%
    09:00 +18°C° 0 mm 3 mps 764 mmHg 66%
    10:00 +19°C° 0 mm 4 mps 764 mmHg 63%
    11:00 +20°C° 0 mm 4 mps 763 mmHg 60%
    12:00 +20°C° 0 mm 4 mps 763 mmHg 57%
    13:00 +20°C° 0 mm 4 mps 763 mmHg 57%
    14:00 +20°C° 0 mm 4 mps 762 mmHg 57%
    15:00 +20°C° 0 mm 4 mps 762 mmHg 57%
    16:00 +19°C° 0 mm 4 mps 762 mmHg 61%
    17:00 +19°C° 0 mm 4 mps 762 mmHg 64%
    18:00 +18°C° 0 mm 3 mps 761 mmHg 68%
    19:00 +16°C° 0 mm 3 mps 761 mmHg 71%
    20:00 +13°C° 0 mm 3 mps 762 mmHg 74%
    21:00 +11°C° 0 mm 3 mps 762 mmHg 77%
    22:00 +10°C° 0 mm 3 mps 762 mmHg 78%
    23:00 +9°C° 0 mm 3 mps 762 mmHg 79%

    30 May, Saturday

    Time Temperature Precipitation Wind Pressure Humidity
    00:00 +9°C° 0 mm 2 mps 762 mmHg 81%
    01:00 +8°C° 0 mm 2 mps 761 mmHg 85%
    02:00 +8°C° 0 mm 2 mps 761 mmHg 88%
    03:00 +8°C° 0 mm 2 mps 761 mmHg 92%
    04:00 +9°C° 0 mm 2 mps 761 mmHg 90%
    05:00 +10°C° 0 mm 2 mps 761 mmHg 88%
    06:00 +12°C° 0 mm 2 mps 761 mmHg 86%
    07:00 +14°C° 0 mm 2 mps 761 mmHg 81%
    08:00 +16°C° 0 mm 3 mps 761 mmHg 75%
    09:00 +18°C° 0 mm 3 mps 761 mmHg 70%
    10:00 +19°C° 0 mm 3 mps 761 mmHg 68%
    11:00 +19°C° 0 mm 3 mps 761 mmHg 65%
    12:00 +20°C° 0 mm 3 mps 761 mmHg 63%
    13:00 +20°C° 0 mm 3 mps 761 mmHg 64%
    14:00 +20°C° 0 mm 3 mps 760 mmHg 65%
    15:00 +20°C° 0 mm 3 mps 760 mmHg 66%
    16:00 +19°C° 0 mm 3 mps 760 mmHg 69%
    17:00 +19°C° 0 mm 3 mps 760 mmHg 72%
    18:00 +18°C° 0 mm 3 mps 760 mmHg 75%
    19:00 +17°C° 0 mm 3 mps 760 mmHg 81%
    20:00 +14°C° 0 mm 3 mps 760 mmHg 86%
    21:00 +12°C° 0 mm 3 mps 760 mmHg 92%
    22:00 +12°C° 0 mm 2 mps 760 mmHg 92%
    23:00 +10°C° 0 mm 2 mps 760 mmHg 93%

    31 May, Sunday

    Time Temperature Precipitation Wind Pressure Humidity
    00:00 +9°C° 0 mm 2 mps 760 mmHg 93%
    01:00 +9°C° 0 mm 2 mps 760 mmHg 93%
    02:00 +9°C° 0 mm 2 mps 759 mmHg 94%
    03:00 +8°C° 0 mm 2 mps 759 mmHg 94%
    04:00 +9°C° 0 mm 2 mps 759 mmHg 92%
    05:00 +10°C° 0 mm 2 mps 759 mmHg 91%
    06:00 +12°C° 0 mm 2 mps 759 mmHg 90%
    07:00 +14°C° 0 mm 2 mps 759 mmHg 84%
    08:00 +16°C° 0 mm 3 mps 759 mmHg 79%
    09:00 +18°C° 0 mm 3 mps 759 mmHg 74%
    10:00 +19°C° 0 mm 3 mps 759 mmHg 70%
    11:00 +20°C° 0 mm 3 mps 759 mmHg 67%
    12:00 +21°C° 0 mm 3 mps 759 mmHg 64%
    13:00 +21°C° 0 mm 3 mps 758 mmHg 64%
    14:00 +21°C° 0 mm 3 mps 758 mmHg 64%
    15:00 +21°C° 0 mm 3 mps 758 mmHg 64%
    16:00 +20°C° 0 mm 3 mps 758 mmHg 68%
    17:00 +19°C° 0 mm 3 mps 758 mmHg 71%
    18:00 +19°C° 0 mm 3 mps 757 mmHg 75%
    19:00 +17°C° 0 mm 3 mps 757 mmHg 79%
    20:00 +14°C° 0 mm 3 mps 757 mmHg 83%
    21:00 +13°C° 0 mm 3 mps 757 mmHg 86%
    22:00 +12°C° 0 mm 3 mps 757 mmHg 86%
    23:00 +12°C° 0 mm 2 mps 757 mmHg 86%
    Show more